Starlink 1667

operational
NORAD ID: 46155 Int'l Des: 2020-057 Owner: SPXS Country: US Constellation: starlink
LEOCIRCULAR

Starlink 1667について

説明を読み込み中...

リアルタイム位置

3D地球を読み込み中...

次回通過

高度履歴

Altitude vs Time

uPlot chart will show altitude changes over time

軌道要素

1 46155U 20057AQ 25354.11638264 .00070312 00000-0 16431-2 0 9995
2 46155 53.0325 248.2251 0007161 96.4716 263.7104 15.41531580296231
Epoch: Dec 20, 2025 • Age: 7 hours

現在のステータス

高度 464.7 km
速度 7.63 km/s
衛星直下点 -52.80°S, 76.01°W
打ち上げ日 Aug 18, 2020
運用期間 5.3 years
タイプ internet

技術仕様

分類 Payload
質量 260.00 kg
乾燥質量 248.00 kg
総質量 260.00 kg
長さ 0.20 m
直径 2.80 m
スパン 9.00 m
形状 Box + pan
製造者 SPXS
バスタイプ Starlink
フェーズステータス In Orbit
所有者/国 SPXS/US

大規模コンステレーション

Loading constellations...